SCP
0 0 0 0 0 0 0 0 0 0 0 0 0 0 0 0 0 0 0 0 0 0 0 0 -0 -0 0 -0 -0 -0 -0 -0 0 -0 -0 -0 -0 -0 -0 -0 -0 -0 -0
0 0 0 0 0 0 0 0 0 0 0 0 0 0 0 0 0 0 0 0 0 0 0 -0 0 -0 0 -0 -0 -0 -0 -0 -0 -0 -0 -0 -0 -0 -0 -0 -0 -0 -0
0 0 0 0 0 0 0 0 0 0 0 0 0 0 0 0 0 0 0 0 0 0 0 0 0 -0 -0 -0 -0 -0 -0 -0 -0 -0 -0 -0 -0 -0 -0 -0 -0 -0 0
0 0 0 0 0 0 0 0 0 0 0 0 0 0 0 0 0 0 0 0 0 0 0 0 0 0 -0 0 -0 -0 -0 -0 -0 -0 -0 -0 -0 -0 -0 -0 -0 -0 -0
0 0 0 0 0 0 0 0 0 0 0 0 0 0 0 0 0 0 0 0 0 0 0 0 0 0 -0 -0 -0 -0 -0 -0 -0 -0 -0 -0 -0 -0 -0 -0 -0 -0 0
0 0 0 0 0 0 0 0 0 0 0 0 0 0 0 0 0 0 0 0 0 0 0 0 0 0 0 0 -0 -0 -0 -0 -0 -0 -0 -0 -0 -0 -0 -0 -0 0 0
0 0 0 0 0 0 0 0 0 0 0 0 0 0 0 0 -0 -0 -0 -0 -0 -0 0 0 0 0 -0 -0 -0 -0 -0 -0 -0 -0 -0 -0 -0 -0 -0 -0 -0 0 0
0 0 0 0 0 0 0 -0 0 0 0 0 0 0 0 0 0 -0 -0 -0 -0 -0 -0 -0 -0 -0 0 0 -0 -0 -0 -0 -0 -0 -0 -0 -0 -0 -0 -0 0 0 0
0 0 0 0 0 0 0 -0 -0 0 0 0 0 0 0 0 0 0 -0 -0 -0 -0 -0 -0 -0 -0 -0 -0 -0 -0 -0 -0 -0 -0 -0 -0 -0 -0 -0 -0 0 0 0
0 0 0 0 0 0 0 -0 -0 -0 -0 0 0 -0 -0 0 0 0 -0 -0 -0 -0 -0 -0 -0 -0 -0 -0 -0 -0 -0 -0 -0 -0 -0 -0 -0 0 0 0 0 0 0
0 0 0 0 0 0 0 0 -0 -0 -0 -0 0 0 0 0 0 0 0 0 -0 -0 -0 -0 0 0 -0 0 0 0 -0 -0 0 0 0 0 0 0 0 0 0 0 0
0 0 0 0 0 0 0 0 -0 -0 -0 -0 0 0 0 0 0 0 0 0 0 0 -0 -0 -0 0 0 0 0 -0 -0 -0 0 0 0 0 0 0 0 0 0 0 0
0 0 0 0 0 0 0 0 0 -0 0 0 0 0 0 0 0 0 -0 0 0 0 0 0 0 0 0 0 0 0 0 0 0 0 0 0 0 0 0 0 0 0 0
0 0 0 0 0 0 0 0 0 0 0 0 0 0 0 0 0 -0 -0 -0 -0 0 -0 0 0 0 0 0 0 0 0 0 0 0 0 0 0 0 0 0 0 0 0
0 0 0 0 0 0 0 0 0 0 0 0 0 0 0 0 -0 -0 -0 -0 -0 0 0 0 -0 0 0 0 0 0 0 0 0 0 0 0 0 0 0 0 0 0 0
0 0 0 0 0 0 0 0 0 0 0 0 0 -0 -0 0 -0 -0 -0 0 0 0 0 0 0 0 0 0 0 0 0 0 0 0 0 0 0 0 0 0 0 0 0
0 0 0 0 0 0 0 0 0 0 0 0 0 -0 -0 -0 -0 -0 0 0 0 0 0 0 0 0 0 0 0 0 0 0 0 0 0 0 0 0 0 0 0 0 0
0 0 0 0 0 0 0 0 0 0 0 0 0 -0 -0 -0 -0 -0 -0 0 0 0 -0 -0 0 0 0 0 0 0 0 0 0 0 0 0 0 0 0 0 0 0 0
0 0 0 0 0 0 0 0 0 0 0 0 0 -0 -0 -0 -0 -0 0 -0 -0 -0 -0 -0 -0 0 0 0 0 0 0 0 0 0 0 0 0 0 0 0 0 0 0
0 0 0 0 0 0 0 0 0 0 0 0 0 0 -0 -0 -0 -0 -0 -0 -0 -0 -0 -0 -0 -0 -0 0 -0 0 -0 -0 -0 0 0 0 0 0 0 0 0 0 0
0 0 0 0 0 0 0 0 0 0 0 0 0 0 0 0 -0 -0 -0 -0 -0 -0 -0 -0 -0 0 0 0 -0 -0 -0 -0 -0 0 0 0 0 0 0 0 0 0 0
0 0 0 0 0 0 0 0 0 0 0 0 0 0 0 0 0 -0 -0 -0 -0 -0 -0 -0 -0 -0 -0 -0 -0 0 0 0 0 0 0 0 0 0 0 0 0 0 0
0 0 0 0 0 0 0 0 0 0 0 0 0 0 0 0 0 0 -0 -0 0 -0 -0 -0 -0 -0 -0 0 -0 -0 -0 0 0 0 0 0 0 0 0 0 0 0 0
0 0 0 0 0 0 0 0 0 0 0 0 0 0 0 0 0 0 0 0 0 0 -0 0 0 0 0 -0 -0 -0 -0 -0 0 0 0 0 0 0 0 0 0 0 0
0 0 0 0 0 0 0 0 0 0 0 0 0 0 0 0 0 0 0 0 0 0 0 0 -0 -0 -0 -0 -0 -0 0 -0 0 0 0 0 0 0 0 0 0 0 0
0 0 0 0 0 0 0 0 0 0 0 0 0 0 0 0 0 0 0 0 0 0 0 0 0 0 0 -0 -0 0 -0 -0 0 0 0 0 0 0 0 0 0 0 0
Wind_Speed_500mb
16 18 16 18 18 20 30 35 39 42 44 43 45 45 49 50 41 43 39 38 36 40 38 35 34 35 36 32 29 26 45 42 36 47 47 49 43 36 30 23 19 25 23
18 19 17 17 19 24 30 38 44 46 47 46 47 52 49 47 49 40 42 39 39 38 35 31 31 33 28 17 25 43 53 54 57 51 51 44 38 28 20 11 26 26 24
20 20 18 18 21 25 29 39 45 48 47 49 53 50 52 45 43 45 41 38 41 39 35 36 36 31 28 31 46 68 74 61 61 52 48 37 30 25 25 33 31 23 19
22 22 20 20 24 27 29 41 48 51 48 49 53 47 45 47 46 42 47 52 44 43 39 32 27 34 43 55 71 57 59 60 53 46 37 30 28 33 27 21 18 20 24
25 24 23 23 25 28 32 39 49 49 48 50 49 47 45 43 48 45 44 44 44 43 47 39 48 44 43 54 66 59 56 54 47 40 35 30 29 24 24 22 26 24 22
28 29 28 26 30 33 35 37 50 52 50 52 47 52 51 46 40 41 44 42 40 43 42 49 43 51 52 56 57 56 54 50 44 37 36 30 24 23 25 35 36 31 25
32 33 33 32 34 34 35 39 51 54 53 54 57 51 46 39 31 33 41 42 38 42 47 48 56 57 56 52 52 50 47 42 40 39 32 26 23 28 35 35 20 20 18
36 37 36 37 39 37 38 36 46 50 47 48 54 52 45 46 43 47 44 45 49 52 57 61 56 55 53 49 45 45 45 43 41 34 29 28 33 37 32 29 22 23 20
39 39 41 40 42 39 35 37 36 35 47 41 33 40 23 26 52 54 52 50 58 63 63 59 50 48 44 42 42 41 47 44 37 33 35 42 44 39 37 29 26 25 26
44 43 45 44 43 44 38 36 37 35 37 44 32 31 32 55 43 55 61 65 64 57 52 45 49 43 38 40 40 42 46 40 33 34 32 38 42 39 33 28 28 23 23
49 48 48 48 48 46 41 36 36 36 40 37 36 34 60 55 49 60 66 63 56 52 43 43 40 38 34 35 35 38 38 34 32 28 24 27 29 29 25 24 22 19 23
57 53 51 51 49 47 44 37 34 34 37 35 36 28 53 59 56 66 72 73 69 54 46 40 35 28 23 23 27 32 33 32 28 23 21 23 19 17 17 20 19 16 23
67 62 58 57 54 50 46 42 37 34 32 37 40 36 41 45 69 68 73 76 72 60 47 34 24 20 18 19 25 32 34 29 23 20 16 15 13 8 4 13 20 21 28
68 63 59 56 54 51 49 44 39 33 30 37 38 39 47 49 59 66 80 81 68 59 50 38 24 16 16 21 29 35 33 26 19 16 9 8 6 1 3 5 23 27 29
68 64 61 58 57 54 51 46 43 37 36 37 33 39 47 55 58 68 70 64 73 65 47 40 32 20 23 28 33 30 28 23 19 16 6 2 3 2 12 17 22 24 26
71 68 66 63 61 57 54 50 47 42 38 36 36 39 44 55 61 65 68 71 62 58 40 42 33 34 29 32 31 27 27 26 22 11 6 5 2 8 3 11 17 19 22
75 73 70 66 64 62 58 55 51 46 41 38 37 41 49 55 64 69 63 61 53 49 49 45 38 38 36 30 32 27 25 19 14 9 9 7 9 5 3 9 12 18 20
77 75 73 70 67 65 62 59 57 51 44 41 41 43 54 61 64 66 58 56 36 33 25 38 43 42 39 36 32 26 20 13 7 3 2 3 6 2 5 10 15 20 21
81 79 76 74 72 68 66 62 57 53 46 41 42 49 58 67 70 68 63 46 37 35 24 28 36 41 40 38 33 25 19 14 10 4 6 2 2 4 10 14 18 22 25
83 83 80 76 72 68 67 64 60 56 50 44 46 50 57 65 67 65 58 48 36 37 33 32 35 41 38 41 35 26 21 17 12 7 4 5 8 12 18 20 24 28 30
84 83 81 78 73 70 70 69 65 60 55 51 51 53 54 57 58 54 49 48 36 27 30 32 37 41 40 42 38 30 23 19 14 12 9 14 15 21 26 29 30 32 34
86 85 83 80 77 74 71 69 67 65 60 57 60 59 54 56 59 55 39 29 24 18 23 31 38 37 37 38 37 31 23 19 14 12 17 21 21 21 28 27 29 30 31
87 87 84 82 79 74 71 70 68 67 64 61 64 66 62 59 60 56 43 34 28 22 15 10 22 28 29 31 31 30 24 17 18 19 22 22 22 23 26 26 25 29 29
90 89 86 82 79 74 71 70 69 68 66 63 64 67 69 67 66 60 48 42 36 29 24 25 22 21 25 27 23 20 18 18 19 22 20 24 22 21 19 25 20 23 27
92 90 85 83 79 75 72 71 70 70 68 65 63 64 66 69 68 68 57 46 40 34 30 32 31 30 29 28 26 25 24 24 22 19 19 13 12 14 19 18 10 16 18
93 90 86 82 78 75 74 71 72 72 71 69 66 65 65 67 72 71 65 52 42 35 29 32 32 28 27 27 26 25 25 25 22 15 11 11 11 10 16 12 18 20 20
Wind_Direction_500mb
146 124 110 97 89 90 100 108 102 96 96 92 90 85 86 86 77 80 80 89 98 107 114 115 110 118 117 127 134 130 165 151 172 150 138 137 133 133 126 120 117 123 124
153 136 122 111 98 98 106 114 110 101 100 99 95 95 93 94 95 87 87 88 96 110 115 112 101 99 98 151 162 151 151 148 147 145 135 134 129 127 119 106 111 109 114
158 147 136 123 108 105 114 120 115 106 106 106 101 100 102 94 95 96 85 87 102 101 111 106 107 102 80 89 156 139 137 139 137 132 133 129 121 106 89 108 116 123 111
165 157 150 135 117 113 120 124 121 113 111 108 105 102 101 108 102 98 95 90 94 103 107 119 109 115 98 82 131 120 118 127 127 128 125 118 104 81 79 112 105 102 112
170 168 158 145 124 124 127 128 126 123 116 112 102 100 98 101 99 101 102 97 94 94 104 100 98 107 106 113 125 126 124 121 122 122 115 96 85 69 85 94 114 113 94
176 174 165 153 133 130 131 132 129 129 114 110 107 100 97 102 102 92 100 107 110 103 103 108 102 108 106 113 117 120 120 123 120 116 105 93 87 88 93 98 99 91 78
181 179 172 161 145 141 131 136 136 123 117 117 109 104 103 104 99 94 106 102 108 117 118 118 115 114 112 111 116 120 121 118 116 112 97 96 102 96 91 95 88 87 81
186 184 181 169 157 152 144 133 134 131 127 121 116 109 104 100 100 107 111 110 115 117 121 118 116 119 118 114 115 118 115 114 116 111 95 93 108 109 103 100 94 89 89
192 187 185 179 171 164 158 154 152 150 147 144 130 132 112 118 109 110 110 115 114 115 114 116 118 117 113 112 117 119 119 119 118 115 101 95 98 100 94 94 81 77 66
195 190 188 186 182 172 168 167 168 167 167 159 151 154 141 133 127 110 120 116 115 118 117 120 120 117 115 117 120 126 131 131 133 121 105 103 100 87 76 80 80 67 47
197 195 192 191 190 184 176 177 178 181 182 179 173 149 149 145 141 134 123 123 123 119 117 122 121 121 117 117 124 134 139 135 131 124 106 106 105 98 83 57 65 59 26
198 197 194 194 193 191 186 184 181 184 189 192 184 178 173 160 156 145 137 134 131 129 136 129 126 126 126 129 132 145 150 148 141 137 113 116 112 93 84 58 54 12 11
200 198 196 193 193 192 190 189 189 192 195 193 191 190 184 174 162 159 151 141 132 136 137 138 142 141 144 141 145 153 157 158 156 148 124 128 133 105 97 43 24 13 10
204 200 197 196 193 192 190 190 189 191 190 185 184 190 181 177 176 180 165 160 143 140 150 149 154 160 157 143 147 152 155 161 165 160 145 137 139 170 299 18 23 17 18
207 202 199 197 194 193 191 191 188 187 178 177 177 173 174 180 179 182 175 176 167 154 155 164 148 155 143 147 147 155 150 167 171 175 196 178 146 291 285 15 27 19 21
207 203 200 198 196 194 191 190 186 187 185 184 184 185 183 179 182 184 176 175 172 169 158 166 163 155 153 155 151 157 155 166 175 196 196 173 198 299 261 36 27 14 13
208 205 201 199 197 195 191 190 188 189 187 188 188 189 182 183 180 185 184 193 189 175 163 164 172 164 164 168 163 166 169 174 189 215 251 167 158 221 15 10 348 350 351
208 206 202 200 198 197 194 192 190 190 190 189 186 183 180 178 180 184 193 191 185 186 207 185 175 172 176 175 178 175 178 182 198 192 158 153 148 148 332 321 314 322 328
207 205 203 202 199 198 195 194 193 192 191 193 189 181 180 178 182 188 190 195 196 202 206 207 198 186 183 182 181 180 179 168 125 77 106 127 199 279 293 302 313 318 318
206 205 203 203 201 199 197 195 193 194 192 192 189 184 182 182 187 189 188 190 198 213 218 220 206 194 190 184 182 180 172 162 166 185 208 246 271 280 300 304 299 303 306
205 205 203 202 201 200 198 196 194 193 191 189 186 183 183 180 181 179 180 189 197 205 222 216 203 196 191 187 181 174 174 185 192 219 253 281 290 296 302 302 299 299 305
205 203 203 202 200 200 199 199 197 194 192 190 186 185 184 181 183 184 187 196 216 224 218 209 197 198 194 189 186 187 192 211 236 265 280 295 289 301 306 308 316 309 309
203 202 203 202 201 201 198 199 198 197 195 193 191 189 186 187 190 199 200 197 198 191 198 221 200 195 193 190 195 203 216 232 256 272 287 303 302 302 306 311 316 325 325
203 201 201 202 201 200 198 198 198 198 199 198 197 195 194 192 192 195 195 191 190 187 178 168 180 187 187 194 200 210 223 236 256 267 273 283 308 312 323 326 339 350 346
202 202 202 201 201 199 198 198 198 198 200 200 200 200 200 199 197 196 198 196 193 190 186 180 181 189 195 203 211 219 226 230 248 260 278 297 314 313 321 333 333 341 341
203 202 201 202 202 199 198 198 199 199 198 199 201 203 202 202 200 199 202 204 200 196 192 190 186 189 196 209 215 218 231 230 240 263 278 305 327 331 327 336 329 329 328
Wind_Speed_850mb
16 18 16 18 18 20 30 35 39 42 44 43 45 45 49 50 41 43 39 38 36 40 38 35 34 35 36 32 29 26 45 42 36 47 47 49 43 36 30 23 19 25 23
18 19 17 17 19 24 30 38 44 46 47 46 47 52 49 47 49 40 42 39 39 38 35 31 31 33 28 17 25 43 53 54 57 51 51 44 38 28 20 11 26 26 24
20 20 18 18 21 25 29 39 45 48 47 49 53 50 52 45 43 45 41 38 41 39 35 36 36 31 28 31 46 68 74 61 61 52 48 37 30 25 25 33 31 23 19
22 22 20 20 24 27 29 41 48 51 48 49 53 47 45 47 46 42 47 52 44 43 39 32 27 34 43 55 71 57 59 60 53 46 37 30 28 33 27 21 18 20 24
25 24 23 23 25 28 32 39 49 49 48 50 49 47 45 43 48 45 44 44 44 43 47 39 48 44 43 54 66 59 56 54 47 40 35 30 29 24 24 22 26 24 22
28 29 28 26 30 33 35 37 50 52 50 52 47 52 51 46 40 41 44 42 40 43 42 49 43 51 52 56 57 56 54 50 44 37 36 30 24 23 25 35 36 31 25
32 33 33 32 34 34 35 39 51 54 53 54 57 51 46 39 31 33 41 42 38 42 47 48 56 57 56 52 52 50 47 42 40 39 32 26 23 28 35 35 20 20 18
36 37 36 37 39 37 38 36 46 50 47 48 54 52 45 46 43 47 44 45 49 52 57 61 56 55 53 49 45 45 45 43 41 34 29 28 33 37 32 29 22 23 20
39 39 41 40 42 39 35 37 36 35 47 41 33 40 23 26 52 54 52 50 58 63 63 59 50 48 44 42 42 41 47 44 37 33 35 42 44 39 37 29 26 25 26
44 43 45 44 43 44 38 36 37 35 37 44 32 31 32 55 43 55 61 65 64 57 52 45 49 43 38 40 40 42 46 40 33 34 32 38 42 39 33 28 28 23 23
49 48 48 48 48 46 41 36 36 36 40 37 36 34 60 55 49 60 66 63 56 52 43 43 40 38 34 35 35 38 38 34 32 28 24 27 29 29 25 24 22 19 23
57 53 51 51 49 47 44 37 34 34 37 35 36 28 53 59 56 66 72 73 69 54 46 40 35 28 23 23 27 32 33 32 28 23 21 23 19 17 17 20 19 16 23
67 62 58 57 54 50 46 42 37 34 32 37 40 36 41 45 69 68 73 76 72 60 47 34 24 20 18 19 25 32 34 29 23 20 16 15 13 8 4 13 20 21 28
68 63 59 56 54 51 49 44 39 33 30 37 38 39 47 49 59 66 80 81 68 59 50 38 24 16 16 21 29 35 33 26 19 16 9 8 6 1 3 5 23 27 29
68 64 61 58 57 54 51 46 43 37 36 37 33 39 47 55 58 68 70 64 73 65 47 40 32 20 23 28 33 30 28 23 19 16 6 2 3 2 12 17 22 24 26
71 68 66 63 61 57 54 50 47 42 38 36 36 39 44 55 61 65 68 71 62 58 40 42 33 34 29 32 31 27 27 26 22 11 6 5 2 8 3 11 17 19 22
75 73 70 66 64 62 58 55 51 46 41 38 37 41 49 55 64 69 63 61 53 49 49 45 38 38 36 30 32 27 25 19 14 9 9 7 9 5 3 9 12 18 20
77 75 73 70 67 65 62 59 57 51 44 41 41 43 54 61 64 66 58 56 36 33 25 38 43 42 39 36 32 26 20 13 7 3 2 3 6 2 5 10 15 20 21
81 79 76 74 72 68 66 62 57 53 46 41 42 49 58 67 70 68 63 46 37 35 24 28 36 41 40 38 33 25 19 14 10 4 6 2 2 4 10 14 18 22 25
83 83 80 76 72 68 67 64 60 56 50 44 46 50 57 65 67 65 58 48 36 37 33 32 35 41 38 41 35 26 21 17 12 7 4 5 8 12 18 20 24 28 30
84 83 81 78 73 70 70 69 65 60 55 51 51 53 54 57 58 54 49 48 36 27 30 32 37 41 40 42 38 30 23 19 14 12 9 14 15 21 26 29 30 32 34
86 85 83 80 77 74 71 69 67 65 60 57 60 59 54 56 59 55 39 29 24 18 23 31 38 37 37 38 37 31 23 19 14 12 17 21 21 21 28 27 29 30 31
87 87 84 82 79 74 71 70 68 67 64 61 64 66 62 59 60 56 43 34 28 22 15 10 22 28 29 31 31 30 24 17 18 19 22 22 22 23 26 26 25 29 29
90 89 86 82 79 74 71 70 69 68 66 63 64 67 69 67 66 60 48 42 36 29 24 25 22 21 25 27 23 20 18 18 19 22 20 24 22 21 19 25 20 23 27
92 90 85 83 79 75 72 71 70 70 68 65 63 64 66 69 68 68 57 46 40 34 30 32 31 30 29 28 26 25 24 24 22 19 19 13 12 14 19 18 10 16 18
93 90 86 82 78 75 74 71 72 72 71 69 66 65 65 67 72 71 65 52 42 35 29 32 32 28 27 27 26 25 25 25 22 15 11 11 11 10 16 12 18 20 20
Wind_Direction_850mb
146 124 110 97 89 90 100 108 102 96 96 92 90 85 86 86 77 80 80 89 98 107 114 115 110 118 117 127 134 130 165 151 172 150 138 137 133 133 126 120 117 123 124
153 136 122 111 98 98 106 114 110 101 100 99 95 95 93 94 95 87 87 88 96 110 115 112 101 99 98 151 162 151 151 148 147 145 135 134 129 127 119 106 111 109 114
158 147 136 123 108 105 114 120 115 106 106 106 101 100 102 94 95 96 85 87 102 101 111 106 107 102 80 89 156 139 137 139 137 132 133 129 121 106 89 108 116 123 111
165 157 150 135 117 113 120 124 121 113 111 108 105 102 101 108 102 98 95 90 94 103 107 119 109 115 98 82 131 120 118 127 127 128 125 118 104 81 79 112 105 102 112
170 168 158 145 124 124 127 128 126 123 116 112 102 100 98 101 99 101 102 97 94 94 104 100 98 107 106 113 125 126 124 121 122 122 115 96 85 69 85 94 114 113 94
176 174 165 153 133 130 131 132 129 129 114 110 107 100 97 102 102 92 100 107 110 103 103 108 102 108 106 113 117 120 120 123 120 116 105 93 87 88 93 98 99 91 78
181 179 172 161 145 141 131 136 136 123 117 117 109 104 103 104 99 94 106 102 108 117 118 118 115 114 112 111 116 120 121 118 116 112 97 96 102 96 91 95 88 87 81
186 184 181 169 157 152 144 133 134 131 127 121 116 109 104 100 100 107 111 110 115 117 121 118 116 119 118 114 115 118 115 114 116 111 95 93 108 109 103 100 94 89 89
192 187 185 179 171 164 158 154 152 150 147 144 130 132 112 118 109 110 110 115 114 115 114 116 118 117 113 112 117 119 119 119 118 115 101 95 98 100 94 94 81 77 66
195 190 188 186 182 172 168 167 168 167 167 159 151 154 141 133 127 110 120 116 115 118 117 120 120 117 115 117 120 126 131 131 133 121 105 103 100 87 76 80 80 67 47
197 195 192 191 190 184 176 177 178 181 182 179 173 149 149 145 141 134 123 123 123 119 117 122 121 121 117 117 124 134 139 135 131 124 106 106 105 98 83 57 65 59 26
198 197 194 194 193 191 186 184 181 184 189 192 184 178 173 160 156 145 137 134 131 129 136 129 126 126 126 129 132 145 150 148 141 137 113 116 112 93 84 58 54 12 11
200 198 196 193 193 192 190 189 189 192 195 193 191 190 184 174 162 159 151 141 132 136 137 138 142 141 144 141 145 153 157 158 156 148 124 128 133 105 97 43 24 13 10
204 200 197 196 193 192 190 190 189 191 190 185 184 190 181 177 176 180 165 160 143 140 150 149 154 160 157 143 147 152 155 161 165 160 145 137 139 170 299 18 23 17 18
207 202 199 197 194 193 191 191 188 187 178 177 177 173 174 180 179 182 175 176 167 154 155 164 148 155 143 147 147 155 150 167 171 175 196 178 146 291 285 15 27 19 21
207 203 200 198 196 194 191 190 186 187 185 184 184 185 183 179 182 184 176 175 172 169 158 166 163 155 153 155 151 157 155 166 175 196 196 173 198 299 261 36 27 14 13
208 205 201 199 197 195 191 190 188 189 187 188 188 189 182 183 180 185 184 193 189 175 163 164 172 164 164 168 163 166 169 174 189 215 251 167 158 221 15 10 348 350 351
208 206 202 200 198 197 194 192 190 190 190 189 186 183 180 178 180 184 193 191 185 186 207 185 175 172 176 175 178 175 178 182 198 192 158 153 148 148 332 321 314 322 328
207 205 203 202 199 198 195 194 193 192 191 193 189 181 180 178 182 188 190 195 196 202 206 207 198 186 183 182 181 180 179 168 125 77 106 127 199 279 293 302 313 318 318
206 205 203 203 201 199 197 195 193 194 192 192 189 184 182 182 187 189 188 190 198 213 218 220 206 194 190 184 182 180 172 162 166 185 208 246 271 280 300 304 299 303 306
205 205 203 202 201 200 198 196 194 193 191 189 186 183 183 180 181 179 180 189 197 205 222 216 203 196 191 187 181 174 174 185 192 219 253 281 290 296 302 302 299 299 305
205 203 203 202 200 200 199 199 197 194 192 190 186 185 184 181 183 184 187 196 216 224 218 209 197 198 194 189 186 187 192 211 236 265 280 295 289 301 306 308 316 309 309
203 202 203 202 201 201 198 199 198 197 195 193 191 189 186 187 190 199 200 197 198 191 198 221 200 195 193 190 195 203 216 232 256 272 287 303 302 302 306 311 316 325 325
203 201 201 202 201 200 198 198 198 198 199 198 197 195 194 192 192 195 195 191 190 187 178 168 180 187 187 194 200 210 223 236 256 267 273 283 308 312 323 326 339 350 346
202 202 202 201 201 199 198 198 198 198 200 200 200 200 200 199 197 196 198 196 193 190 186 180 181 189 195 203 211 219 226 230 248 260 278 297 314 313 321 333 333 341 341
203 202 201 202 202 199 198 198 199 199 198 199 201 203 202 202 200 199 202 204 200 196 192 190 186 189 196 209 215 218 231 230 240 263 278 305 327 331 327 336 329 329 328